QPF
0.00 0.00 0.00 0.00 0.00 0.00 0.00 0.00 0.00 0.00 0.00 0.00 0.00 0.00 0.00 0.00 0.00 0.00 0.00 0.00 0.00 0.00 0.00 0.00 0.00 0.00 0.00 0.00 0.00 0.00 0.00 0.00 0.00 0.00 0.00 0.00 0.00 0.00 0.00 0.00 0.00 0.00 0.00
0.00 0.00 0.00 0.00 0.00 0.00 0.00 0.00 0.00 0.00 0.00 0.00 0.00 0.00 0.00 0.00 0.00 0.00 0.00 0.00 0.00 0.00 0.00 0.00 0.00 0.00 0.00 0.00 0.00 0.00 0.00 0.00 0.00 0.00 0.00 0.00 0.00 0.00 0.00 0.00 0.00 0.00 0.00
0.00 0.00 0.00 0.00 0.00 0.00 0.00 0.00 0.00 0.00 0.00 0.00 0.00 0.00 0.00 0.00 0.00 0.00 0.00 0.00 0.00 0.00 0.00 0.00 0.00 0.00 0.00 0.00 0.00 0.00 0.00 0.00 0.00 0.00 0.00 0.00 0.00 0.00 0.00 0.00 0.00 0.00 0.00
0.00 0.00 0.00 0.00 0.00 0.00 0.00 0.00 0.00 0.00 0.00 0.00 0.00 0.00 0.00 0.00 0.00 0.00 0.00 0.00 0.00 0.00 0.00 0.00 0.00 0.00 0.00 0.00 0.00 0.00 0.00 0.00 0.00 0.00 0.00 0.00 0.00 0.00 0.00 0.00 0.00 0.00 0.00
0.00 0.00 0.00 0.00 0.00 0.00 0.00 0.00 0.00 0.00 0.00 0.00 0.00 0.00 0.00 0.00 0.00 0.00 0.00 0.00 0.00 0.00 0.00 0.00 0.00 0.00 0.00 0.00 0.00 0.00 0.00 0.00 0.00 0.00 0.00 0.00 0.00 0.00 0.00 0.00 0.00 0.00 0.00
0.00 0.00 0.00 0.00 0.00 0.00 0.00 0.00 0.00 0.00 0.00 0.00 0.00 0.00 0.00 0.00 0.00 0.00 0.00 0.00 0.00 0.00 0.00 0.00 0.00 0.00 0.00 0.00 0.00 0.00 0.00 0.00 0.00 0.00 0.00 0.00 0.00 0.00 0.00 0.00 0.01 0.01 0.01
0.01 0.01 0.01 0.01 0.00 0.00 0.00 0.00 0.00 0.00 0.00 0.00 0.00 0.00 0.00 0.00 0.00 0.00 0.00 0.00 0.00 0.00 0.00 0.00 0.00 0.00 0.00 0.00 0.00 0.00 0.00 0.00 0.00 0.00 0.00 0.00 0.00 0.00 0.00 0.01 0.01 0.01 0.01
0.03 0.02 0.01 0.01 0.01 0.01 0.00 0.00 0.00 0.00 0.00 0.00 0.00 0.00 0.00 0.00 0.00 0.00 0.00 0.00 0.00 0.00 0.00 0.00 0.00 0.00 0.00 0.00 0.00 0.00 0.00 0.00 0.00 0.00 0.00 0.00 0.00 0.00 0.01 0.01 0.01 0.02 0.02
0.07 0.05 0.03 0.02 0.02 0.01 0.01 0.00 0.00 0.00 0.00 0.00 0.00 0.00 0.00 0.00 0.00 0.00 0.00 0.00 0.00 0.00 0.00 0.00 0.00 0.00 0.00 0.00 0.00 0.00 0.00 0.00 0.00 0.00 0.00 0.00 0.00 0.01 0.01 0.02 0.02 0.02 0.03
0.09 0.08 0.07 0.04 0.03 0.02 0.01 0.01 0.00 0.00 0.00 0.00 0.00 0.00 0.00 0.00 0.00 0.00 0.00 0.00 0.00 0.00 0.00 0.00 0.00 0.00 0.00 0.00 0.00 0.00 0.00 0.00 0.00 0.00 0.00 0.00 0.01 0.01 0.02 0.02 0.03 0.04 0.04
0.09 0.09 0.08 0.07 0.05 0.04 0.03 0.02 0.01 0.01 0.00 0.00 0.00 0.00 0.00 0.00 0.00 0.00 0.00 0.00 0.00 0.00 0.00 0.00 0.00 0.00 0.00 0.00 0.00 0.00 0.00 0.00 0.00 0.00 0.00 0.00 0.01 0.02 0.03 0.03 0.04 0.04 0.03
0.07 0.07 0.08 0.08 0.07 0.06 0.05 0.03 0.02 0.01 0.01 0.01 0.00 0.00 0.00 0.00 0.00 0.00 0.00 0.00 0.00 0.00 0.00 0.00 0.00 0.00 0.00 0.00 0.00 0.00 0.00 0.00 0.00 0.00 0.00 0.01 0.02 0.02 0.03 0.03 0.03 0.03 0.03
0.04 0.05 0.06 0.07 0.08 0.08 0.07 0.05 0.03 0.02 0.01 0.01 0.01 0.00 0.00 0.00 0.00 0.00 0.00 0.00 0.00 0.00 0.00 0.00 0.00 0.00 0.00 0.00 0.00 0.00 0.00 0.00 0.00 0.00 0.00 0.01 0.02 0.02 0.02 0.02 0.03 0.03 0.04
0.05 0.06 0.06 0.07 0.07 0.06 0.06 0.05 0.03 0.02 0.02 0.01 0.01 0.00 0.00 0.00 0.00 0.00 0.00 0.00 0.00 0.00 0.00 0.00 0.00 0.00 0.00 0.00 0.00 0.00 0.00 0.00 0.00 0.00 0.00 0.01 0.01 0.01 0.01 0.02 0.02 0.03 0.04
0.04 0.04 0.05 0.06 0.06 0.05 0.05 0.04 0.03 0.02 0.01 0.01 0.01 0.00 0.00 0.00 0.00 0.00 0.00 0.00 0.00 0.00 0.00 0.00 0.00 0.00 0.00 0.00 0.00 0.00 0.00 0.00 0.00 0.00 0.00 0.00 0.00 0.01 0.01 0.01 0.02 0.02 0.03
0.02 0.04 0.05 0.05 0.06 0.05 0.04 0.03 0.02 0.02 0.01 0.01 0.01 0.00 0.00 0.00 0.00 0.00 0.00 0.00 0.00 0.00 0.00 0.00 0.00 0.00 0.00 0.00 0.00 0.00 0.00 0.00 0.00 0.00 0.00 0.00 0.00 0.01 0.01 0.01 0.02 0.02 0.03
0.02 0.03 0.05 0.05 0.05 0.04 0.03 0.02 0.02 0.01 0.01 0.00 0.00 0.00 0.00 0.00 0.00 0.00 0.00 0.00 0.00 0.00 0.00 0.00 0.00 0.00 0.00 0.00 0.00 0.00 0.00 0.00 0.00 0.00 0.00 0.00 0.00 0.01 0.01 0.01 0.01 0.02 0.03
0.02 0.03 0.03 0.03 0.02 0.02 0.02 0.01 0.01 0.01 0.01 0.00 0.00 0.00 0.01 0.01 0.00 0.00 0.00 0.00 0.00 0.00 0.00 0.00 0.00 0.00 0.00 0.00 0.00 0.00 0.00 0.00 0.00 0.00 0.00 0.00 0.00 0.00 0.00 0.01 0.01 0.02 0.02
0.02 0.02 0.02 0.02 0.02 0.02 0.01 0.01 0.01 0.01 0.01 0.01 0.01 0.01 0.01 0.01 0.00 0.00 0.00 0.00 0.00 0.00 0.00 0.00 0.00 0.00 0.00 0.00 0.00 0.00 0.00 0.00 0.00 0.00 0.00 0.00 0.00 0.00 0.00 0.01 0.01 0.01 0.01
0.02 0.01 0.01 0.01 0.01 0.02 0.02 0.02 0.02 0.02 0.02 0.02 0.01 0.01 0.00 0.00 0.00 0.00 0.00 0.00 0.00 0.00 0.00 0.00 0.00 0.00 0.00 0.00 0.00 0.00 0.00 0.00 0.00 0.00 0.00 0.00 0.00 0.00 0.00 0.00 0.00 0.00 0.00
0.01 0.01 0.02 0.02 0.02 0.03 0.03 0.03 0.03 0.03 0.02 0.01 0.01 0.00 0.00 0.00 0.00 0.00 0.00 0.00 0.00 0.00 0.00 0.00 0.00 0.00 0.00 0.00 0.00 0.00 0.00 0.00 0.00 0.00 0.00 0.00 0.00 0.00 0.00 0.00 0.00 0.00 0.00
0.03 0.03 0.04 0.06 0.06 0.06 0.05 0.04 0.03 0.02 0.01 0.00 0.00 0.00 0.00 0.00 0.00 0.00 0.00 0.00 0.00 0.00 0.00 0.01 0.01 0.01 0.00 0.00 0.00 0.00 0.00 0.00 0.00 0.00 0.00 0.00 0.00 0.00 0.00 0.00 0.00 0.00 0.00
0.05 0.06 0.07 0.07 0.06 0.05 0.04 0.02 0.01 0.01 0.00 0.00 0.00 0.00 0.00 0.00 0.00 0.00 0.00 0.00 0.00 0.00 0.01 0.01 0.01 0.00 0.00 0.00 0.00 0.01 0.01 0.02 0.01 0.00 0.00 0.00 0.00 0.00 0.00 0.00 0.00 0.00 0.00
0.10 0.09 0.07 0.06 0.05 0.03 0.02 0.01 0.00 0.00 0.00 0.00 0.00 0.00 0.00 0.00 0.00 0.00 0.00 0.00 0.00 0.00 0.00 0.00 0.00 0.00 0.00 0.00 0.01 0.02 0.02 0.01 0.00 0.00 0.00 0.00 0.00 0.00 0.00 0.00 0.00 0.00 0.00
0.11 0.09 0.06 0.04 0.03 0.02 0.01 0.00 0.00 0.00 0.00 0.00 0.00 0.00 0.00 0.00 0.00 0.00 0.00 0.00 0.00 0.00 0.00 0.00 0.00 0.00 0.00 0.00 0.00 0.00 0.00 0.01 0.01 0.00 0.00 0.00 0.00 0.00 0.00 0.00 0.00 0.00 0.00
0.08 0.05 0.03 0.02 0.01 0.00 0.00 0.00 0.00 0.00 0.00 0.00 0.00 0.00 0.00 0.00 0.00 0.01 0.01 0.01 0.01 0.00 0.00 0.00 0.00 0.00 0.00 0.00 0.00 0.00 0.00 0.03 0.03 0.02 0.00 0.01 0.01 0.01 0.02 0.00 0.00 0.00 0.00
MSLP
1017.17 1017.35 1017.47 1017.57 1017.67 1017.81 1018.01 1018.25 1018.53 1018.81 1019.08 1019.30 1019.47 1019.59 1019.67 1019.73 1019.79 1019.87 1019.98 1020.11 1020.25 1020.40 1020.52 1020.62 1020.67 1020.69 1020.66 1020.60 1020.52 1020.41 1020.30 1020.19 1020.08 1019.98 1019.88 1019.79 1019.68 1019.57 1019.42 1019.25 1019.04 1018.80 1018.55
1016.82 1017.05 1017.23 1017.40 1017.58 1017.80 1018.06 1018.36 1018.69 1019.01 1019.30 1019.54 1019.72 1019.85 1019.93 1020.00 1020.07 1020.15 1020.27 1020.41 1020.56 1020.72 1020.85 1020.95 1021.01 1021.01 1020.96 1020.86 1020.74 1020.59 1020.44 1020.29 1020.16 1020.05 1019.95 1019.86 1019.78 1019.68 1019.56 1019.40 1019.20 1018.96 1018.70
1016.35 1016.65 1016.92 1017.19 1017.47 1017.79 1018.14 1018.51 1018.89 1019.24 1019.55 1019.80 1019.98 1020.10 1020.18 1020.24 1020.31 1020.39 1020.50 1020.64 1020.80 1020.95 1021.09 1021.19 1021.25 1021.24 1021.18 1021.07 1020.92 1020.74 1020.56 1020.38 1020.22 1020.09 1019.98 1019.89 1019.81 1019.72 1019.60 1019.45 1019.26 1019.02 1018.77
1015.77 1016.16 1016.54 1016.93 1017.34 1017.77 1018.22 1018.67 1019.10 1019.48 1019.80 1020.04 1020.21 1020.32 1020.39 1020.45 1020.50 1020.58 1020.68 1020.81 1020.96 1021.11 1021.24 1021.34 1021.40 1021.40 1021.33 1021.22 1021.06 1020.87 1020.66 1020.46 1020.28 1020.12 1019.99 1019.88 1019.78 1019.68 1019.56 1019.40 1019.21 1018.98 1018.72
1015.15 1015.62 1016.11 1016.63 1017.16 1017.72 1018.26 1018.78 1019.25 1019.66 1019.98 1020.22 1020.39 1020.50 1020.56 1020.61 1020.66 1020.72 1020.82 1020.93 1021.07 1021.20 1021.33 1021.43 1021.48 1021.48 1021.43 1021.32 1021.17 1020.98 1020.77 1020.55 1020.35 1020.16 1020.00 1019.85 1019.72 1019.58 1019.43 1019.26 1019.06 1018.82 1018.57
1014.52 1015.07 1015.66 1016.28 1016.93 1017.58 1018.21 1018.79 1019.30 1019.73 1020.07 1020.31 1020.49 1020.60 1020.67 1020.73 1020.78 1020.85 1020.94 1021.05 1021.16 1021.28 1021.39 1021.48 1021.53 1021.54 1021.49 1021.40 1021.25 1021.07 1020.86 1020.64 1020.41 1020.19 1019.99 1019.79 1019.61 1019.43 1019.24 1019.04 1018.82 1018.57 1018.31
1013.94 1014.54 1015.20 1015.90 1016.63 1017.35 1018.04 1018.67 1019.22 1019.67 1020.02 1020.29 1020.48 1020.62 1020.73 1020.82 1020.90 1020.99 1021.08 1021.18 1021.29 1021.39 1021.48 1021.54 1021.58 1021.59 1021.55 1021.46 1021.32 1021.15 1020.94 1020.70 1020.45 1020.20 1019.95 1019.71 1019.47 1019.23 1019.00 1018.75 1018.50 1018.24 1017.98
1013.46 1014.08 1014.77 1015.52 1016.29 1017.05 1017.77 1018.42 1018.99 1019.46 1019.84 1020.15 1020.39 1020.58 1020.75 1020.89 1021.02 1021.15 1021.26 1021.37 1021.46 1021.54 1021.61 1021.65 1021.67 1021.65 1021.60 1021.51 1021.38 1021.20 1020.99 1020.74 1020.47 1020.18 1019.88 1019.59 1019.29 1019.00 1018.71 1018.43 1018.14 1017.86 1017.59
1013.08 1013.70 1014.40 1015.14 1015.92 1016.68 1017.41 1018.06 1018.65 1019.14 1019.56 1019.92 1020.23 1020.50 1020.74 1020.96 1021.16 1021.33 1021.48 1021.60 1021.69 1021.75 1021.79 1021.81 1021.79 1021.75 1021.68 1021.57 1021.42 1021.23 1021.00 1020.73 1020.43 1020.11 1019.77 1019.42 1019.08 1018.74 1018.40 1018.07 1017.76 1017.46 1017.17
1012.81 1013.42 1014.10 1014.82 1015.57 1016.31 1017.02 1017.67 1018.26 1018.78 1019.24 1019.66 1020.04 1020.40 1020.73 1021.03 1021.30 1021.53 1021.72 1021.86 1021.96 1022.01 1022.02 1022.00 1021.95 1021.88 1021.77 1021.63 1021.45 1021.23 1020.97 1020.67 1020.34 1019.98 1019.61 1019.23 1018.84 1018.45 1018.08 1017.72 1017.37 1017.05 1016.75
1012.63 1013.23 1013.88 1014.57 1015.28 1015.99 1016.67 1017.31 1017.90 1018.44 1018.94 1019.42 1019.87 1020.31 1020.72 1021.10 1021.44 1021.73 1021.95 1022.12 1022.22 1022.26 1022.26 1022.21 1022.13 1022.01 1021.87 1021.68 1021.46 1021.20 1020.91 1020.57 1020.21 1019.82 1019.41 1019.00 1018.58 1018.16 1017.76 1017.37 1017.00 1016.65 1016.33
1012.51 1013.11 1013.74 1014.41 1015.09 1015.76 1016.42 1017.04 1017.63 1018.19 1018.73 1019.25 1019.76 1020.25 1020.72 1021.16 1021.55 1021.88 1022.13 1022.32 1022.43 1022.47 1022.46 1022.39 1022.29 1022.14 1021.95 1021.72 1021.46 1021.15 1020.81 1020.43 1020.03 1019.61 1019.18 1018.74 1018.30 1017.87 1017.44 1017.02 1016.63 1016.26 1015.92
1012.43 1013.04 1013.68 1014.34 1015.00 1015.66 1016.30 1016.92 1017.51 1018.08 1018.64 1019.18 1019.72 1020.25 1020.75 1021.21 1021.62 1021.96 1022.23 1022.42 1022.54 1022.59 1022.58 1022.51 1022.39 1022.22 1022.00 1021.74 1021.42 1021.07 1020.67 1020.25 1019.81 1019.36 1018.91 1018.45 1018.00 1017.56 1017.11 1016.68 1016.26 1015.86 1015.49
1012.36 1013.02 1013.68 1014.36 1015.03 1015.69 1016.33 1016.95 1017.54 1018.12 1018.68 1019.23 1019.77 1020.28 1020.77 1021.22 1021.62 1021.95 1022.21 1022.41 1022.53 1022.59 1022.59 1022.53 1022.42 1022.24 1022.00 1021.70 1021.34 1020.94 1020.50 1020.03 1019.55 1019.07 1018.59 1018.13 1017.67 1017.21 1016.76 1016.31 1015.87 1015.44 1015.03
1012.31 1013.02 1013.74 1014.45 1015.16 1015.84 1016.50 1017.12 1017.72 1018.30 1018.85 1019.37 1019.88 1020.36 1020.80 1021.21 1021.56 1021.85 1022.09 1022.27 1022.39 1022.46 1022.48 1022.44 1022.34 1022.17 1021.92 1021.60 1021.21 1020.76 1020.27 1019.76 1019.24 1018.72 1018.22 1017.74 1017.27 1016.81 1016.35 1015.89 1015.43 1014.97 1014.52
1012.28 1013.06 1013.84 1014.61 1015.36 1016.08 1016.76 1017.41 1018.01 1018.57 1019.10 1019.59 1020.04 1020.46 1020.83 1021.16 1021.44 1021.67 1021.86 1022.02 1022.13 1022.21 1022.25 1022.23 1022.15 1021.99 1021.74 1021.41 1020.99 1020.51 1019.97 1019.41 1018.85 1018.30 1017.77 1017.27 1016.79 1016.32 1015.86 1015.39 1014.91 1014.42 1013.93
1012.32 1013.16 1014.00 1014.82 1015.62 1016.39 1017.10 1017.76 1018.36 1018.91 1019.40 1019.84 1020.22 1020.56 1020.84 1021.08 1021.27 1021.43 1021.57 1021.68 1021.78 1021.86 1021.91 1021.91 1021.85 1021.70 1021.46 1021.12 1020.68 1020.16 1019.59 1018.98 1018.37 1017.78 1017.23 1016.70 1016.21 1015.73 1015.26 1014.77 1014.28 1013.77 1013.26
1012.49 1013.36 1014.24 1015.11 1015.95 1016.74 1017.47 1018.13 1018.73 1019.25 1019.70 1020.08 1020.39 1020.65 1020.84 1020.98 1021.09 1021.17 1021.24 1021.30 1021.37 1021.44 1021.48 1021.50 1021.44 1021.31 1021.07 1020.72 1020.26 1019.72 1019.11 1018.46 1017.81 1017.18 1016.59 1016.04 1015.52 1015.02 1014.54 1014.05 1013.55 1013.03 1012.51
1012.81 1013.70 1014.60 1015.48 1016.33 1017.12 1017.85 1018.50 1019.08 1019.56 1019.97 1020.29 1020.54 1020.71 1020.82 1020.87 1020.89 1020.90 1020.90 1020.91 1020.93 1020.97 1021.00 1021.00 1020.95 1020.81 1020.57 1020.22 1019.75 1019.18 1018.54 1017.87 1017.18 1016.51 1015.88 1015.30 1014.75 1014.23 1013.73 1013.23 1012.71 1012.19 1011.66
1013.34 1014.21 1015.09 1015.95 1016.78 1017.55 1018.25 1018.86 1019.39 1019.83 1020.19 1020.45 1020.64 1020.74 1020.78 1020.76 1020.70 1020.63 1020.56 1020.51 1020.48 1020.48 1020.48 1020.46 1020.39 1020.24 1019.99 1019.63 1019.15 1018.57 1017.91 1017.21 1016.50 1015.80 1015.14 1014.52 1013.94 1013.39 1012.86 1012.34 1011.81 1011.28 1010.75
1014.07 1014.89 1015.72 1016.53 1017.30 1018.01 1018.64 1019.20 1019.67 1020.05 1020.35 1020.56 1020.68 1020.73 1020.70 1020.62 1020.50 1020.37 1020.23 1020.12 1020.03 1019.97 1019.93 1019.87 1019.77 1019.60 1019.34 1018.97 1018.49 1017.91 1017.25 1016.55 1015.82 1015.10 1014.41 1013.76 1013.14 1012.56 1011.99 1011.44 1010.89 1010.34 1009.80
1014.98 1015.73 1016.48 1017.21 1017.88 1018.50 1019.04 1019.51 1019.90 1020.21 1020.44 1020.59 1020.67 1020.66 1020.59 1020.46 1020.29 1020.10 1019.90 1019.73 1019.58 1019.46 1019.35 1019.25 1019.11 1018.92 1018.65 1018.27 1017.80 1017.23 1016.59 1015.89 1015.17 1014.45 1013.74 1013.06 1012.41 1011.78 1011.17 1010.58 1009.99 1009.42 1008.85
1016.00 1016.67 1017.32 1017.94 1018.50 1019.00 1019.43 1019.79 1020.09 1020.31 1020.47 1020.56 1020.59 1020.54 1020.43 1020.26 1020.05 1019.81 1019.56 1019.33 1019.12 1018.94 1018.78 1018.62 1018.44 1018.23 1017.94 1017.57 1017.12 1016.58 1015.96 1015.29 1014.59 1013.87 1013.16 1012.46 1011.77 1011.11 1010.45 1009.80 1009.17 1008.54 1007.94
1017.06 1017.64 1018.18 1018.68 1019.11 1019.48 1019.78 1020.03 1020.22 1020.35 1020.44 1020.47 1020.44 1020.36 1020.21 1020.01 1019.77 1019.49 1019.20 1018.92 1018.66 1018.42 1018.21 1018.00 1017.79 1017.55 1017.26 1016.90 1016.46 1015.96 1015.38 1014.75 1014.08 1013.38 1012.67 1011.97 1011.26 1010.55 1009.84 1009.14 1008.44 1007.76 1007.10
1018.07 1018.56 1018.99 1019.36 1019.66 1019.90 1020.08 1020.20 1020.29 1020.33 1020.34 1020.31 1020.23 1020.11 1019.94 1019.72 1019.45 1019.15 1018.83 1018.51 1018.21 1017.92 1017.66 1017.42 1017.17 1016.91 1016.62 1016.27 1015.86 1015.39 1014.85 1014.26 1013.63 1012.96 1012.27 1011.56 1010.83 1010.09 1009.34 1008.58 1007.81 1007.07 1006.35
1018.97 1019.36 1019.69 1019.94 1020.12 1020.24 1020.30 1020.31 1020.29 1020.25 1020.18 1020.10 1019.98 1019.83 1019.63 1019.39 1019.11 1018.79 1018.46 1018.12 1017.78 1017.47 1017.18 1016.90 1016.63 1016.35 1016.05 1015.70 1015.31 1014.86 1014.36 1013.80 1013.20 1012.56 1011.88 1011.18 1010.44 1009.68 1008.89 1008.08 1007.26 1006.45 1005.66
Thickness
5677 5675 5673 5671 5669 5666 5664 5661 5658 5656 5654 5652 5650 5648 5646 5643 5641 5640 5638 5636 5634 5631 5628 5625 5623 5621 5620 5619 5619 5618 5618 5617 5617 5617 5617 5617 5617 5617 5618 5618 5619 5619 5621
5675 5672 5669 5667 5664 5662 5659 5656 5652 5649 5647 5644 5642 5640 5637 5635 5632 5630 5628 5626 5623 5621 5618 5616 5614 5612 5611 5610 5610 5610 5609 5609 5608 5608 5608 5608 5608 5608 5608 5609 5609 5610 5611
5672 5669 5666 5663 5660 5657 5653 5649 5645 5642 5639 5636 5633 5631 5629 5626 5623 5621 5619 5616 5613 5611 5608 5606 5604 5603 5601 5601 5601 5601 5600 5600 5599 5598 5598 5598 5598 5598 5598 5599 5599 5600 5601
5670 5666 5662 5658 5655 5652 5648 5643 5639 5634 5630 5627 5624 5622 5620 5617 5614 5612 5609 5606 5604 5601 5599 5596 5594 5593 5591 5591 5590 5590 5590 5590 5589 5588 5588 5588 5588 5588 5588 5588 5589 5589 5590
5667 5662 5658 5654 5650 5645 5641 5637 5631 5627 5622 5618 5616 5613 5611 5608 5605 5602 5599 5597 5594 5592 5589 5586 5584 5583 5581 5580 5580 5579 5579 5579 5578 5578 5577 5577 5577 5577 5577 5577 5577 5578 5579
5664 5658 5653 5648 5644 5639 5634 5630 5624 5619 5614 5610 5608 5604 5601 5599 5596 5593 5590 5587 5584 5582 5579 5577 5574 5572 5571 5570 5569 5568 5568 5567 5567 5566 5566 5566 5566 5566 5566 5566 5566 5567 5568
5660 5654 5648 5643 5639 5634 5629 5623 5617 5611 5605 5602 5598 5594 5591 5589 5587 5584 5581 5578 5575 5572 5570 5567 5564 5562 5560 5558 5557 5557 5556 5555 5555 5555 5554 5554 5554 5554 5554 5554 5555 5555 5556
5656 5650 5645 5639 5634 5628 5622 5617 5612 5604 5598 5594 5591 5586 5583 5579 5577 5575 5571 5568 5565 5562 5559 5556 5553 5550 5549 5547 5546 5545 5544 5543 5543 5543 5543 5543 5543 5542 5542 5542 5543 5544 5544
5651 5646 5641 5635 5629 5625 5618 5613 5608 5601 5592 5586 5584 5581 5576 5574 5567 5564 5561 5558 5555 5551 5548 5544 5541 5539 5537 5536 5534 5533 5531 5531 5530 5530 5530 5530 5529 5529 5529 5529 5530 5531 5531
5644 5640 5635 5630 5625 5619 5613 5608 5602 5596 5590 5581 5576 5572 5568 5565 5560 5556 5551 5547 5544 5540 5537 5533 5530 5527 5526 5524 5522 5520 5518 5517 5517 5516 5516 5516 5515 5515 5515 5515 5516 5516 5516
5635 5632 5627 5623 5618 5613 5607 5601 5595 5589 5585 5578 5571 5565 5559 5553 5548 5545 5541 5535 5532 5529 5525 5522 5518 5515 5513 5510 5508 5506 5504 5503 5502 5501 5501 5500 5499 5499 5499 5499 5500 5499 5499
5623 5621 5618 5614 5609 5604 5599 5593 5587 5581 5576 5570 5563 5558 5552 5545 5539 5533 5528 5522 5517 5515 5513 5509 5505 5502 5499 5495 5492 5490 5489 5487 5486 5485 5484 5484 5484 5483 5483 5482 5481 5481 5480
5613 5611 5609 5604 5599 5594 5589 5584 5577 5572 5566 5560 5554 5547 5542 5536 5530 5523 5516 5510 5505 5503 5501 5497 5493 5489 5484 5480 5477 5474 5472 5470 5469 5468 5468 5468 5468 5466 5465 5464 5463 5462 5461
5607 5603 5599 5594 5589 5584 5578 5573 5567 5561 5555 5549 5544 5538 5531 5525 5520 5514 5506 5498 5492 5489 5487 5484 5481 5476 5470 5466 5462 5459 5457 5454 5453 5452 5451 5451 5449 5448 5446 5445 5443 5441 5440
5595 5591 5587 5582 5578 5573 5567 5562 5556 5549 5543 5538 5533 5527 5520 5514 5509 5502 5495 5488 5480 5474 5473 5471 5466 5463 5457 5452 5448 5445 5442 5439 5437 5436 5434 5432 5430 5428 5426 5424 5422 5419 5416
5583 5579 5574 5570 5565 5560 5555 5549 5543 5537 5531 5526 5521 5515 5509 5502 5496 5490 5484 5476 5469 5461 5457 5456 5451 5447 5443 5438 5434 5430 5427 5424 5421 5418 5415 5413 5410 5407 5404 5401 5398 5395 5391
5571 5568 5563 5558 5553 5548 5542 5537 5532 5526 5520 5515 5510 5504 5497 5491 5484 5478 5471 5464 5456 5448 5445 5444 5437 5432 5427 5422 5419 5414 5410 5407 5402 5398 5394 5391 5387 5384 5380 5376 5373 5370 5367
5559 5556 5552 5547 5541 5535 5530 5525 5520 5514 5509 5504 5498 5492 5485 5479 5473 5466 5459 5452 5445 5437 5431 5429 5424 5417 5412 5406 5403 5398 5394 5389 5383 5377 5373 5369 5364 5359 5356 5352 5350 5348 5346
5546 5544 5540 5535 5529 5523 5518 5513 5508 5502 5497 5491 5486 5480 5474 5467 5461 5454 5447 5439 5433 5427 5418 5413 5410 5403 5397 5391 5387 5382 5376 5369 5361 5355 5350 5346 5341 5337 5334 5332 5331 5330 5329
5535 5531 5527 5522 5516 5511 5506 5501 5496 5490 5484 5478 5473 5468 5461 5455 5449 5442 5435 5427 5420 5412 5404 5398 5394 5389 5382 5376 5368 5363 5361 5351 5342 5334 5329 5326 5322 5319 5316 5314 5314 5314 5315
5521 5518 5514 5508 5503 5498 5494 5489 5484 5478 5472 5465 5460 5454 5449 5444 5438 5431 5424 5415 5407 5398 5390 5383 5379 5373 5366 5358 5350 5343 5339 5336 5328 5317 5316 5311 5306 5305 5302 5300 5300 5302 5305
5507 5504 5500 5495 5491 5487 5483 5478 5472 5466 5459 5453 5447 5441 5436 5430 5424 5417 5410 5404 5395 5386 5377 5369 5362 5354 5347 5338 5331 5324 5318 5316 5316 5304 5300 5301 5294 5295 5293 5290 5290 5293 5296
5493 5490 5486 5483 5479 5475 5471 5466 5461 5453 5447 5441 5434 5428 5422 5415 5407 5401 5395 5388 5379 5369 5361 5353 5344 5335 5328 5320 5313 5308 5301 5297 5296 5290 5287 5294 5289 5288 5286 5283 5282 5285 5288
5480 5477 5474 5472 5468 5464 5460 5456 5450 5442 5435 5428 5422 5415 5408 5401 5394 5389 5383 5374 5363 5352 5344 5335 5326 5319 5310 5304 5298 5294 5290 5288 5286 5279 5274 5279 5283 5282 5281 5277 5275 5278 5282
5469 5466 5463 5460 5457 5453 5450 5445 5439 5431 5424 5417 5410 5403 5396 5388 5383 5378 5370 5359 5349 5338 5327 5319 5311 5304 5298 5292 5287 5283 5278 5274 5277 5275 5265 5265 5272 5272 5275 5274 5272 5272 5274
5459 5456 5453 5450 5446 5442 5439 5435 5429 5420 5413 5406 5398 5390 5382 5376 5370 5362 5353 5343 5334 5325 5315 5306 5297 5290 5285 5279 5275 5270 5264 5261 5261 5263 5260 5256 5257 5254 5267 5273 5267 5265 5267